Tracking 30922 objects as of 2-Jul-2025
HD Live streaming from Space Station
objects crossing your sky now

STARLINK-32170

Track STARLINK-32170 now!
10-day predictions
STARLINK-32170 is classified as:


NORAD ID: 60591
Int'l Code: 2024-150J
Perigee: 481.7 km
Apogee: 483.1 km
Inclination: 53.2 °
Period: 94.1 minutes
Semi major axis: 6853 km
RCS: Unknown
Launch date: August 20, 2024
Source: United States (US)
Launch site: AIR FORCE EASTERN TEST RANGE (AFETR)
Your satellite tracking list
Your tracking list is empty




NASA's NSSDC Master Catalog

Two Line Element Set (TLE):
1 60591U 24150J   25182.85847034 -.00000182  00000-0  59728-5 0  9998
2 60591  53.1608  32.4236 0001043  85.1116 275.0004 15.30191552 49559
Source of the keplerian elements: AFSPC